When you browse on this site, cookies collect data to enhance your experience and personalize the content and advertising you see.
Visit our Privacy Policy to learn more. By continuing to use the site, you agree to this use of cookies and data.
  • In Spain
  • List of Countries
  • For 7 days
  • Water Temperature
  • Satellite Maps
  • Weather Map
  • Weather Widgets
  • user-avatar
    Login

    Hourly Weather Graz

    Today, 18 February, Monday

    Time Temperature Precipitation Wind Pressure Humidity
    00:00 +6°C° 0 mm 1 mps 730 mmHg 66%
    01:00 +6°C° 0 mm 1 mps 730 mmHg 65%
    02:00 +6°C° 0 mm 1 mps 730 mmHg 64%
    03:00 +5°C° 0 mm 1 mps 729 mmHg 63%
    04:00 +5°C° 0 mm 1 mps 729 mmHg 62%
    05:00 +5°C° 0 mm 1 mps 729 mmHg 61%
    06:00 +5°C° 0 mm 1 mps 729 mmHg 60%
    07:00 +4°C° 0 mm 1 mps 729 mmHg 57%
    08:00 +6°C° 0 mm 1 mps 729 mmHg 52%
    09:00 +7°C° 0 mm 0 mps 729 mmHg 46%
    10:00 +10°C° 0 mm 0 mps 729 mmHg 40%
    11:00 +11°C° 0 mm 0 mps 729 mmHg 38%
    12:00 +13°C° 0 mm 1 mps 728 mmHg 37%
    13:00 +15°C° 0 mm 1 mps 728 mmHg 35%
    14:00 +14°C° 0 mm 1 mps 728 mmHg 39%
    15:00 +14°C° 0 mm 1 mps 727 mmHg 43%
    16:00 +13°C° 0 mm 1 mps 727 mmHg 46%
    17:00 +11°C° 0 mm 1 mps 727 mmHg 53%
    18:00 +8°C° 0 mm 0 mps 727 mmHg 60%
    19:00 +6°C° 0 mm 0 mps 727 mmHg 66%
    20:00 +6°C° 0 mm 0 mps 727 mmHg 68%
    21:00 +7°C° 0 mm 1 mps 727 mmHg 69%
    22:00 +6°C° 0 mm 1 mps 727 mmHg 71%
    23:00 +6°C° 0 mm 1 mps 726 mmHg 72%

    Tomorrow, 19 February, Tuesday

    Time Temperature Precipitation Wind Pressure Humidity
    00:00 +6°C° 0 mm 1 mps 726 mmHg 73%
    01:00 +5°C° 0 mm 1 mps 726 mmHg 74%
    02:00 +5°C° 0 mm 1 mps 726 mmHg 73%
    03:00 +5°C° 0 mm 1 mps 726 mmHg 73%
    04:00 +5°C° 0 mm 1 mps 726 mmHg 72%
    05:00 +4°C° 0 mm 1 mps 726 mmHg 70%
    06:00 +4°C° 0 mm 1 mps 726 mmHg 67%
    07:00 +4°C° 0 mm 1 mps 726 mmHg 65%
    08:00 +6°C° 0 mm 1 mps 726 mmHg 58%
    09:00 +8°C° 0 mm 1 mps 726 mmHg 50%
    10:00 +10°C° 0 mm 0 mps 727 mmHg 43%
    11:00 +11°C° 0 mm 0 mps 727 mmHg 40%
    12:00 +13°C° 0 mm 0 mps 727 mmHg 37%
    13:00 +14°C° 0 mm 0 mps 726 mmHg 34%
    14:00 +13°C° 0 mm 0 mps 726 mmHg 37%
    15:00 +14°C° 0 mm 1 mps 726 mmHg 40%
    16:00 +13°C° 0 mm 1 mps 726 mmHg 42%
    17:00 +12°C° 0 mm 1 mps 726 mmHg 50%
    18:00 +10°C° 0 mm 1 mps 726 mmHg 57%
    19:00 +7°C° 0 mm 0 mps 727 mmHg 64%
    20:00 +7°C° 0 mm 1 mps 727 mmHg 66%
    21:00 +7°C° 0 mm 1 mps 727 mmHg 69%
    22:00 +6°C° 0 mm 1 mps 727 mmHg 71%
    23:00 +6°C° 0 mm 1 mps 727 mmHg 72%

    Day after tomorrow, 20 February, Wednesday

    Time Temperature Precipitation Wind Pressure Humidity
    00:00 +6°C° 0 mm 1 mps 728 mmHg 73%
    01:00 +5°C° 0 mm 1 mps 728 mmHg 74%
    02:00 +5°C° 0 mm 1 mps 728 mmHg 73%
    03:00 +5°C° 0 mm 1 mps 728 mmHg 72%
    04:00 +5°C° 0 mm 1 mps 728 mmHg 72%
    05:00 +5°C° 0 mm 1 mps 728 mmHg 72%
    06:00 +5°C° 0 mm 1 mps 728 mmHg 72%
    07:00 +5°C° 0 mm 1 mps 728 mmHg 72%
    08:00 +7°C° 0 mm 1 mps 729 mmHg 66%
    09:00 +8°C° 0 mm 1 mps 729 mmHg 61%
    10:00 +9°C° 0 mm 0 mps 730 mmHg 55%
    11:00 +10°C° 0 mm 0 mps 729 mmHg 53%
    12:00 +12°C° 0 mm 1 mps 729 mmHg 50%
    13:00 +13°C° 0 mm 1 mps 729 mmHg 48%
    14:00 +13°C° 0 mm 1 mps 729 mmHg 49%
    15:00 +12°C° 0 mm 1 mps 729 mmHg 51%
    16:00 +12°C° 0 mm 1 mps 729 mmHg 52%
    17:00 +11°C° 0 mm 1 mps 729 mmHg 59%
    18:00 +8°C° 0 mm 0 mps 730 mmHg 66%
    19:00 +7°C° 0 mm 0 mps 730 mmHg 73%
    20:00 +6°C° 0 mm 0 mps 730 mmHg 75%
    21:00 +7°C° 0 mm 1 mps 730 mmHg 77%
    22:00 +7°C° 0 mm 1 mps 731 mmHg 79%
    23:00 +6°C° 0 mm 1 mps 731 mmHg 81%

    21 February, Thursday

    Time Temperature Precipitation Wind Pressure Humidity
    00:00 +6°C° 0 mm 1 mps 731 mmHg 82%
    01:00 +6°C° 0 mm 1 mps 731 mmHg 84%
    02:00 +5°C° 0 mm 1 mps 731 mmHg 84%
    03:00 +5°C° 0 mm 1 mps 731 mmHg 85%
    04:00 +5°C° 0 mm 1 mps 731 mmHg 85%
    05:00 +5°C° 0 mm 1 mps 731 mmHg 85%
    06:00 +5°C° 0 mm 1 mps 731 mmHg 85%
    07:00 +5°C° 0 mm 1 mps 732 mmHg 85%
    08:00 +7°C° 0 mm 1 mps 732 mmHg 76%
    09:00 +9°C° 0 mm 1 mps 732 mmHg 68%
    10:00 +11°C° 0 mm 1 mps 732 mmHg 59%
    11:00 +12°C° 0 mm 1 mps 732 mmHg 54%
    12:00 +13°C° 0 mm 0 mps 732 mmHg 49%
    13:00 +14°C° 0 mm 0 mps 732 mmHg 44%
    14:00 +13°C° 0 mm 0 mps 732 mmHg 47%
    15:00 +13°C° 0 mm 0 mps 732 mmHg 49%
    16:00 +13°C° 0 mm 0 mps 731 mmHg 52%
    17:00 +12°C° 0 mm 1 mps 732 mmHg 57%
    18:00 +11°C° 0 mm 1 mps 732 mmHg 63%
    19:00 +9°C° 0 mm 1 mps 732 mmHg 68%
    20:00 +9°C° 0 mm 1 mps 732 mmHg 70%
    21:00 +8°C° 0 mm 2 mps 732 mmHg 71%
    22:00 +7°C° 0 mm 2 mps 733 mmHg 72%
    23:00 +7°C° 0 mm 2 mps 733 mmHg 73%

    22 February, Friday

    Time Temperature Precipitation Wind Pressure Humidity
    00:00 +6°C° 0 mm 2 mps 733 mmHg 74%
    01:00 +6°C° 0 mm 2 mps 733 mmHg 75%
    02:00 +5°C° 0 mm 2 mps 733 mmHg 75%
    03:00 +5°C° 0 mm 2 mps 733 mmHg 76%
    04:00 +5°C° 0 mm 2 mps 733 mmHg 76%
    05:00 +5°C° 0 mm 2 mps 733 mmHg 77%
    06:00 +6°C° 0 mm 2 mps 734 mmHg 77%
    07:00 +6°C° 0 mm 2 mps 734 mmHg 78%
    08:00 +7°C° 0 mm 2 mps 734 mmHg 74%
    09:00 +8°C° 0 mm 2 mps 734 mmHg 70%
    10:00 +9°C° 0 mm 2 mps 735 mmHg 66%
    11:00 +10°C° 0 mm 3 mps 735 mmHg 64%
    12:00 +10°C° 0 mm 3 mps 735 mmHg 62%
    13:00 +11°C° 0 mm 3 mps 735 mmHg 59%
    14:00 +11°C° 0 mm 4 mps 735 mmHg 58%
    15:00 +11°C° 0 mm 4 mps 735 mmHg 57%
    16:00 +11°C° 0 mm 4 mps 735 mmHg 56%
    17:00 +9°C° 0 mm 3 mps 736 mmHg 64%
    18:00 +8°C° 0 mm 2 mps 736 mmHg 71%
    19:00 +7°C° 0 mm 1 mps 737 mmHg 79%
    20:00 +7°C° 0 mm 1 mps 737 mmHg 81%
    21:00 +6°C° 0 mm 1 mps 738 mmHg 84%
    22:00 +6°C° 0 mm 1 mps 738 mmHg 86%
    23:00 +5°C° 0 mm 1 mps 739 mmHg 85%

    23 February, Saturday

    Time Temperature Precipitation Wind Pressure Humidity
    00:00 +5°C° 0 mm 1 mps 739 mmHg 84%
    01:00 +4°C° 0 mm 1 mps 740 mmHg 82%
    02:00 +4°C° 0 mm 1 mps 740 mmHg 79%
    03:00 +4°C° 0 mm 1 mps 740 mmHg 76%
    04:00 +3°C° 0 mm 1 mps 740 mmHg 73%
    05:00 +3°C° 0 mm 1 mps 740 mmHg 72%
    06:00 +2°C° 0 mm 1 mps 740 mmHg 72%
    07:00 +1°C° 0 mm 1 mps 740 mmHg 71%
    08:00 +3°C° 0 mm 1 mps 740 mmHg 67%
    09:00 +4°C° 0 mm 1 mps 740 mmHg 62%
    10:00 +5°C° 0 mm 1 mps 741 mmHg 58%
    11:00 +7°C° 0 mm 1 mps 740 mmHg 55%
    12:00 +8°C° 0 mm 1 mps 740 mmHg 52%
    13:00 +9°C° 0 mm 1 mps 739 mmHg 48%
    14:00 +9°C° 0 mm 1 mps 739 mmHg 49%
    15:00 +9°C° 0 mm 1 mps 739 mmHg 49%
    16:00 +9°C° 0 mm 1 mps 738 mmHg 49%
    17:00 +8°C° 0 mm 1 mps 738 mmHg 54%
    18:00 +6°C° 0 mm 1 mps 738 mmHg 59%
    19:00 +4°C° 0 mm 0 mps 738 mmHg 64%
    20:00 +5°C° 0 mm 1 mps 738 mmHg 64%
    21:00 +5°C° 0 mm 1 mps 738 mmHg 64%
    22:00 +5°C° 0 mm 1 mps 738 mmHg 65%
    23:00 +5°C° 0 mm 1 mps 737 mmHg 64%
    Show more